Presure
188 196 193 193 194 189 185 190 191 187 185 185 182 179 179 179 176 177 185 171 176 175 184 165 171 173 178 163 181 173 187 177 170 187 177 175 185 175 178 172 177 178 185 189 190
181 183 182 183 179 180 182 179 177 176 171 169 176 178 175 171 182 185 171 162 169 172 183 184 168 171 180 183 173 189 171 182 177 172 176 173 179 173 171 174 166 185 180 179 177
164 178 182 177 179 177 177 175 175 172 178 179 178 174 173 175 174 180 170 165 160 162 172 164 157 173 162 160 175 170 185 187 172 155 162 179 176 172 175 174 174 172 175 174 170
177 164 178 177 178 177 174 174 176 176 176 173 171 174 175 177 167 170 171 169 166 161 169 162 172 178 178 176 175 155 169 178 179 181 166 168 185 167 166 175 183 181 178 179 181
174 170 173 163 180 177 179 175 175 170 161 163 168 167 169 176 181 174 166 174 184 187 183 189 169 168 174 176 178 177 176 170 179 180 176 177 173 175 175 171 177 166 168 174 177
167 173 173 168 165 169 171 168 168 165 154 161 168 169 172 168 168 178 188 179 182 181 177 177 179 184 188 187 193 180 171 171 173 183 178 180 181 180 172 170 163 170 174 173 178
172 176 167 172 172 165 170 178 182 177 169 177 175 176 180 173 165 181 178 172 165 184 200 248 245 241 246 233 179 181 185 188 174 177 175 172 174 179 186 178 176 176 176 177 180
171 174 171 164 163 162 169 167 167 168 175 156 169 169 167 179 175 191 160 203 185 203 230 217 217 223 225 331 250 272 198 190 194 181 178 178 169 183 175 169 170 171 173 187 183
179 172 175 169 173 176 168 165 167 157 165 172 175 165 178 164 175 188 167 192 191 228 207 207 221 219 216 289 277 238 266 249 193 194 191 184 174 172 172 181 186 186 182 180 181
190 176 172 177 175 170 174 167 169 160 175 177 164 161 168 178 182 178 200 194 220 210 200 206 207 205 284 326 308 337 216 271 244 194 185 185 195 172 180 180 184 181 175 184 182
177 189 176 163 182 173 171 170 175 166 179 169 176 177 177 168 156 196 174 200 221 197 209 205 201 222 218 311 318 332 337 212 266 282 211 197 197 194 193 188 187 180 180 183 185
189 193 190 190 164 182 176 177 169 181 173 175 174 172 163 177 162 178 179 200 222 190 207 206 210 218 283 297 307 315 327 336 233 246 276 241 233 205 204 199 191 193 198 197 190
202 191 195 187 189 187 178 180 171 178 177 172 175 172 180 153 177 165 185 195 217 188 206 202 205 210 265 274 290 304 213 323 329 212 215 216 234 256 260 255 229 222 229 235 175
215 201 183 195 184 186 178 174 191 179 182 177 177 182 178 158 180 164 195 190 209 185 209 199 203 208 208 259 257 278 295 233 223 321 202 212 213 210 146 244 248 249 143 140 209
209 172 193 193 182 184 193 183 188 178 179 175 168 191 182 160 182 189 189 196 205 190 202 197 204 200 208 233 233 238 245 262 284 299 207 208 205 138 206 205 206 133 178 137 205
213 214 200 203 191 198 184 186 182 192 188 180 188 182 179 185 181 183 189 191 199 201 192 210 200 194 201 205 220 230 204 202 205 211 212 212 210 211 183 128 128 163 176 123 141
227 207 218 209 203 191 192 194 181 181 182 184 183 179 171 176 187 189 187 187 195 203 189 195 207 196 200 200 201 198 169 215 154 204 154 187 177 153 162 174 146 153 205 198 203
238 218 209 215 208 205 193 187 204 165 176 198 159 177 173 185 197 191 185 191 194 201 204 190 194 204 197 199 201 197 202 129 205 206 174 199 197 180 170 144 138 122 198 126 137
241 230 221 217 224 214 199 204 188 182 189 173 153 194 194 191 196 190 189 175 186 198 201 192 189 194 198 207 197 200 200 202 163 135 112 205 206 110 163 154 174 132 211 207 211
253 240 226 213 224 226 216 199 202 190 192 186 185 177 182 186 197 182 193 184 188 196 197 203 191 192 191 197 198 204 201 208 202 206 145 153 149 191 197 165 139 171 206 164 186
285 247 245 234 221 223 232 214 196 199 199 196 191 185 199 182 182 192 186 188 178 190 199 195 195 197 198 195 195 199 198 201 201 159 196 200 147 167 186 194 203 209 188 136 135
170 274 255 235 223 212 216 225 214 197 195 197 198 187 188 189 201 191 192 192 187 188 191 193 196 197 192 201 203 209 197 201 199 197 186 179 193 198 154 90 126 143 201 158 131
277 314 248 257 235 231 211 224 220 209 209 199 204 204 186 166 187 185 195 180 193 194 188 198 198 193 197 201 203 205 198 200 212 204 182 152 152 189 134 143 159 212 201 97 140
285 319 328 265 249 240 227 199 218 226 212 208 211 186 198 195 197 193 181 180 192 187 191 195 193 194 197 193 196 200 158 200 219 182 177 193 192 187 169 139 130 174 131 150 138
297 292 301 321 255 244 230 219 215 225 221 224 207 182 199 196 202 199 183 186 178 203 194 186 190 189 218 204 197 195 210 219 201 200 210 184 145 132 134 146 143 181 168 172 125
276 282 292 326 305 232 245 230 220 213 219 228 227 210 213 208 192 193 190 189 191 121 213 196 186 209 222 194 221 223 219 203 210 150 142 147 213 142 146 207 233 229 205 246 166
282 298 297 300 312 310 247 237 229 224 210 220 222 229 231 216 215 197 207 196 197 193 191 185 192 203 212 217 208 204 219 229 174 141 140 140 161 225 220 203 199 241 169 247 248
Wind_Speed
17 14 17 19 20 22 26 24 24 25 24 25 27 29 31 31 32 32 33 32 32 32 34 30 33 33 35 31 35 33 36 37 37 35 39 39 36 38 38 40 38 39 38 36 37
21 22 23 22 25 25 25 27 27 28 30 30 31 32 33 33 34 35 32 28 32 34 37 38 31 33 38 40 36 40 35 41 38 37 37 39 39 40 41 41 44 37 39 40 42
29 27 25 29 29 30 30 31 32 32 31 30 31 32 32 33 32 36 32 31 31 32 37 32 39 38 32 38 39 33 43 44 41 37 37 42 42 43 43 44 44 43 42 44 48
34 31 31 33 33 33 34 34 33 32 32 31 30 33 35 34 34 34 36 37 37 34 39 35 40 43 44 43 43 45 37 43 44 44 39 40 45 45 46 49 45 44 45 44 46
41 37 37 34 37 37 37 37 35 32 29 29 30 30 32 34 37 36 38 40 42 43 43 45 43 40 43 45 44 43 42 39 46 49 44 45 43 44 46 45 45 45 46 45 46
47 45 43 41 39 38 38 36 34 32 32 32 33 34 34 32 33 34 38 37 36 38 41 44 46 49 51 51 55 45 39 40 42 48 46 49 49 49 45 45 47 48 48 46 46
54 53 47 47 46 41 41 43 44 39 34 37 36 36 37 31 32 35 33 33 40 40 46 42 45 50 54 55 45 47 49 52 43 45 43 41 43 46 52 50 50 51 49 47 49
58 57 54 49 45 42 43 39 37 35 39 38 35 37 34 35 32 41 39 43 37 41 39 37 40 43 48 27 56 63 54 52 56 48 45 44 42 47 46 47 50 48 47 54 53
68 61 60 55 55 54 46 42 39 39 35 38 38 38 39 31 32 37 37 38 38 39 34 34 37 38 42 31 37 50 60 61 52 54 53 48 44 43 45 52 56 53 53 52 53
78 68 62 63 61 54 53 45 43 41 44 43 38 39 37 38 41 35 38 39 39 36 32 32 33 35 29 24 27 26 45 58 61 53 49 50 54 43 50 54 53 52 50 55 56
71 80 69 56 68 61 56 51 52 44 49 39 42 42 41 35 40 43 34 38 37 34 33 30 30 32 31 22 21 23 27 43 54 60 57 54 51 51 57 59 56 50 52 55 57
83 87 81 79 56 68 62 59 49 55 46 45 42 41 40 38 38 39 36 36 34 34 32 29 28 28 24 21 19 18 20 25 45 51 52 59 59 55 57 59 56 56 58 59 59
96 87 89 81 78 76 66 65 52 53 50 45 45 42 43 43 39 36 38 34 33 32 30 29 28 24 21 18 16 16 31 19 25 44 45 46 48 48 47 50 54 56 61 62 44
97 95 76 89 77 77 66 59 68 57 58 54 48 49 44 43 42 38 38 35 32 32 30 28 28 24 21 16 12 12 11 25 33 23 42 42 45 46 26 42 44 46 29 28 57
94 73 88 92 78 78 82 69 70 55 54 50 45 53 47 45 41 43 38 35 32 32 30 29 27 27 23 17 13 11 10 9 9 16 39 39 44 23 46 47 49 23 40 25 59
103 101 94 101 89 93 77 74 63 68 64 58 59 51 49 46 41 40 40 36 33 30 31 27 29 28 27 22 18 16 27 30 32 33 36 38 41 42 35 20 18 40 45 18 33
111 101 101 104 102 89 85 84 62 55 65 62 56 50 49 46 45 44 41 38 35 32 32 31 28 31 29 28 26 27 23 27 27 36 28 37 38 30 37 37 31 40 55 58 61
113 107 102 104 106 101 88 74 83 55 59 73 55 48 47 50 51 47 43 41 37 34 32 34 33 30 32 32 30 30 30 29 34 37 41 41 40 43 38 30 26 30 57 22 38
116 115 111 107 105 104 88 89 72 72 75 58 58 62 59 59 53 48 46 43 41 37 35 36 38 35 33 32 35 34 34 34 37 31 22 46 46 27 38 36 47 25 60 59 64
118 116 114 100 109 106 99 80 87 81 82 70 65 57 62 53 57 49 49 47 44 41 38 36 41 40 38 37 37 36 35 36 39 42 37 37 35 48 48 41 33 44 63 49 60
108 118 121 116 107 104 100 95 85 90 89 80 72 61 67 54 50 52 51 51 48 45 42 42 41 43 43 42 41 41 41 41 43 42 48 53 32 35 47 53 61 64 57 36 40
53 120 119 121 108 87 88 97 100 91 85 82 78 64 62 61 65 55 55 54 52 50 48 46 46 46 46 46 46 46 45 45 46 49 48 48 64 59 39 14 21 38 66 44 34
86 89 108 123 119 108 87 98 101 101 100 85 86 82 66 66 59 56 57 56 56 54 53 51 50 50 49 49 50 50 49 49 50 52 50 43 40 57 30 36 45 70 69 23 39
92 87 88 117 116 112 108 80 99 99 98 93 93 77 77 72 71 66 60 57 57 56 57 53 53 53 53 52 54 54 36 52 52 49 50 65 59 53 49 37 30 55 31 45 44
89 90 90 85 108 112 110 105 102 99 102 101 88 79 83 76 78 70 65 61 59 62 59 57 58 58 58 59 58 58 60 59 60 57 61 55 40 30 35 46 46 63 53 58 40
91 88 86 79 90 103 114 111 108 103 99 99 98 96 97 88 70 67 65 66 61 32 62 61 63 62 60 60 58 58 66 62 67 37 39 41 74 39 44 68 81 83 68 85 52
93 84 88 84 83 94 111 111 111 109 94 100 96 100 99 96 89 73 81 70 66 63 65 64 65 63 60 62 61 64 67 67 45 37 38 41 49 78 77 65 70 84 55 89 91
Wind_Direction
256 235 224 217 214 222 231 226 224 231 236 240 244 248 250 252 254 256 253 255 259 259 257 253 251 258 257 249 248 249 240 242 239 240 243 244 242 243 244 241 237 237 240 240 240
252 251 246 233 235 233 230 235 238 239 245 249 248 250 252 257 258 258 256 252 264 266 264 258 259 259 258 255 258 249 251 244 243 242 241 242 243 242 243 243 243 242 241 241 241
254 246 242 247 241 239 236 237 239 243 243 247 250 253 256 259 261 257 264 267 253 254 262 259 235 264 241 248 260 258 251 246 247 238 251 242 242 243 242 242 243 244 245 247 246
249 251 243 244 245 243 242 242 241 243 244 247 253 258 262 259 255 264 266 266 264 254 266 254 265 265 262 259 261 235 257 256 253 251 245 250 245 246 247 246 245 244 245 245 249
252 246 244 248 244 247 248 247 246 246 243 248 256 257 259 262 264 259 260 264 266 267 265 262 258 255 261 261 259 257 255 253 256 253 253 254 253 251 250 250 250 245 247 247 248
255 251 244 243 246 248 249 252 252 251 246 253 257 256 257 255 259 266 270 265 270 268 263 261 261 261 260 258 256 255 244 248 251 254 252 255 255 256 252 249 248 252 255 254 257
250 249 249 246 244 242 246 250 252 253 255 259 262 263 265 258 252 270 268 262 254 271 273 277 271 266 261 256 256 255 254 253 248 248 246 244 247 252 255 256 255 255 256 258 259
248 246 246 245 243 240 244 244 246 250 259 246 257 258 251 269 268 279 249 281 276 280 282 275 270 267 264 269 254 247 251 251 250 250 247 245 243 249 249 250 252 254 256 259 258
249 244 243 244 247 244 244 240 243 236 249 259 260 255 269 248 269 279 252 281 278 288 278 277 280 270 265 268 258 254 246 244 250 250 251 249 246 247 250 255 256 257 258 259 259
240 246 244 242 244 245 247 242 242 238 257 258 250 248 257 268 276 273 279 283 291 282 279 281 279 270 294 296 266 256 250 243 244 249 250 252 251 253 255 254 255 255 260 263 262
243 239 242 241 242 242 244 245 250 243 253 247 257 261 266 257 248 277 270 283 291 278 284 282 278 286 273 300 289 274 255 245 244 242 247 250 251 251 252 255 256 257 260 262 265
239 238 238 239 239 243 243 245 242 252 247 249 251 253 246 266 246 268 273 281 291 275 283 282 284 287 320 313 298 284 267 253 244 244 245 248 250 250 253 257 259 261 263 264 264
230 234 236 238 239 241 244 243 238 246 249 247 250 248 260 242 264 255 275 279 289 274 282 281 282 285 326 325 316 295 250 262 248 246 246 247 248 252 255 257 259 262 266 268 265
228 230 237 236 239 240 241 241 242 244 247 247 253 254 253 240 263 249 272 272 285 271 283 278 281 284 279 325 324 323 302 251 247 247 249 247 249 252 245 261 263 266 264 266 267
226 242 233 234 238 239 238 242 242 241 244 243 239 252 253 237 259 265 267 272 279 268 277 274 277 276 276 305 282 274 272 287 273 250 247 247 250 243 253 255 257 262 260 278 266
228 225 230 229 234 235 238 239 240 242 244 249 248 250 252 254 253 259 263 265 271 269 268 276 272 269 273 270 279 272 256 253 252 249 247 248 251 255 251 249 270 268 272 255 296
223 231 226 228 228 234 236 238 234 236 241 247 247 247 247 247 252 258 259 261 266 269 260 268 272 268 270 268 263 257 250 260 245 257 243 255 260 235 252 266 275 271 272 274 276
221 229 232 227 229 228 234 234 236 222 234 241 238 244 238 252 253 257 255 260 263 267 268 260 264 266 266 266 265 261 262 241 262 260 259 263 263 263 266 276 258 255 274 293 295
222 225 226 230 227 229 231 233 234 234 241 231 241 245 247 250 251 251 255 246 255 260 262 257 258 261 261 264 262 263 265 266 256 241 250 269 266 246 270 265 275 274 277 280 280
223 225 225 231 228 228 230 231 233 239 240 238 239 235 239 249 253 248 254 250 254 258 256 260 257 258 258 260 261 264 264 264 265 268 255 260 270 271 273 272 283 274 276 283 282
224 226 224 225 232 231 228 228 233 235 237 239 240 236 245 242 238 248 250 251 247 254 256 254 257 262 262 261 261 263 263 265 267 258 270 274 260 273 275 276 278 278 281 290 294
241 224 224 226 234 227 233 226 229 235 237 238 239 234 239 245 248 244 249 251 249 251 252 253 257 258 256 263 265 266 262 264 265 268 267 271 273 275 281 250 269 283 284 288 293
229 227 225 224 228 230 230 228 228 234 236 237 239 240 235 232 239 238 245 243 250 251 252 256 257 258 262 266 267 267 262 264 271 267 268 268 278 274 281 286 287 284 282 276 288
228 227 226 225 226 226 229 229 231 229 235 237 239 236 240 241 243 243 235 238 245 249 252 256 257 259 261 260 264 266 254 265 275 268 269 268 279 279 280 286 281 286 293 289 296
219 227 229 223 224 227 227 231 233 231 234 234 239 233 240 238 242 243 236 236 240 251 251 252 257 256 272 265 264 265 272 276 270 273 281 278 272 268 273 279 283 287 292 291 295
228 230 232 229 221 225 226 228 232 233 234 234 235 239 240 240 234 237 239 238 243 250 255 251 254 267 274 263 275 278 275 273 276 262 266 272 284 277 280 288 293 293 297 302 294
225 218 226 229 223 222 224 227 229 233 236 237 235 237 238 242 242 240 247 244 246 257 245 248 254 263 272 273 269 270 277 283 271 260 266 270 279 289 292 294 292 301 293 306 308